[[{"header":{"parameterUnit":"m.s-1","parameterCategory":2,"la1":30.2991,"la2":30.254,"lo1":-89.0895,"lo2":-89.0444,"dy":0.0017,"dx":0.0017,"nx":28,"ny":28,"refTime":"2024-03-14T21:00:00:Z","depth":"0","parameterNumber":2,"parameterNumberName":"U-component_of_CURRENTS"},"data":[0,0,0,0,0,0,0,0,0,0,0,0,0,0,0,0,0,0,0,0,0,0,0,0,0,0,0,0,0,0,0,0,0,0,0,0,0,0,0,0,0,0,0,0,0,0,0,0,0,0,0,0,0,0,0,0,0,0,0.3388,0.3388,0,0.3352,0.3352,0.3351,0.3304,0.3304,0.3303,0.3303,0.3268,0.3267,0.3267,0,0,0,0,0,0,0,0,0,0,0,0,0,0.3453,0.3451,0.3388,0.3388,0.3388,0.3353,0.3352,0.3351,0.3304,0.3304,0.3303,0.3302,0.3268,0.3267,0.3267,0,0,0,0,0,0,0,0,0,0,0,0,0,0.3419,0.3451,0.3388,0.3362,0.3359,0.3353,0.3352,0.3351,0.3305,0.3304,0.3303,0.3302,0.3268,0.3267,0.3267,0.328,0,0,0.3265,0.3265,0,0,0,0,0,0,0,0,0.3421,0.3417,0.3366,0.3364,0.3361,0.3334,0.3362,0.3328,0.3305,0.3323,0.3303,0.3302,0.3292,0.3289,0.3281,0.3278,0.3277,0.3265,0.3265,0.3264,0.3264,0,0,0,0,0,0,0,0.3424,0.3418,0.3372,0.3366,0.3363,0.3365,0.3358,0.3355,0.3311,0.3321,0.3318,0.3318,0.329,0.3282,0.328,0.3276,0.3265,0.3264,0.3264,0.3264,0.3316,0.3318,0,0,0,0,0,0,0.3431,0.342,0.3373,0.3371,0.3392,0.3364,0.3357,0.3342,0.3311,0.3306,0.3319,0.3316,0.3283,0.3281,0.3279,0.3339,0.3264,0.3264,0.3263,0.3314,0.3316,0.3318,0,0,0,0,0,0,0.3433,0.3427,0.3375,0.3398,0.3391,0.3364,0.3347,0.3341,0.3339,0.331,0.3304,0.3323,0.3283,0.328,0.3288,0.3336,0.3263,0.3263,0.3312,0.3315,0.3317,0.343,0,0,0,0,0,0,0.3434,0.3427,0.3427,0.3398,0.339,0.3392,0.3348,0.3341,0.3341,0.3337,0.3312,0.3307,0.3282,0.3289,0.3288,0.3333,0.3262,0.331,0.3313,0.3317,0.3424,0.3436,0.3446,0,0,0,0,0,0.3437,0.344,0.3426,0.3422,0.3387,0.3394,0.3391,0.3367,0.3342,0.3357,0.3333,0.3308,0.3309,0.329,0.3288,0.3335,0.3308,0.3313,0.3316,0.3419,0.3434,0.3446,0,0,0,0,0,0,0.347,0.3435,0.3419,0.3412,0.3414,0.3387,0.34,0.3378,0.3369,0.3364,0.3326,0.3321,0.335,0.3324,0.3304,0.3359,0.3307,0.3311,0.3386,0.34,0.3411,0.3439,0.3262,0,0,0,0,0,0.3477,0.3466,0.3448,0.3445,0.3451,0.3427,0.3427,0.3412,0.3398,0.3392,0.3368,0.3353,0.3365,0.3366,0.3363,0.339,0.3388,0.3419,0.343,0.344,0.3462,0.3506,0.3524,0.3331,0.3331,0.3331,0,0,0.3486,0.347,0.3461,0.3452,0.3449,0.3469,0.3425,0.3437,0.3454,0.3392,0.3406,0.3393,0.338,0.3413,0.3424,0.3397,0.3492,0.3445,0.3454,0.347,0.3512,0.3531,0.3548,0.3334,0.3333,0.3333,0,0,0.3506,0.3493,0.3495,0.3506,0.3511,0.3508,0.3516,0.3499,0.3498,0.3515,0.348,0.3496,0.3493,0.3499,0.3503,0.3575,0.3552,0.3572,0.3652,0.3696,0.3712,0.3727,0.3744,0.3759,0.3576,0.3576,0.3577,0,0.3524,0.3515,0.3504,0.3523,0.3539,0.3531,0.3556,0.3567,0.355,0.3565,0.3538,0.3562,0.3543,0.3603,0.3626,0.3605,0.3614,0.3603,0.3713,0.3727,0.374,0.3753,0.3769,0.3582,0.3582,0.3581,0.358,0,0.3539,0.3551,0.3566,0.3582,0.3607,0.363,0.3649,0.3672,0.3671,0.3673,0.3725,0.3707,0.3721,0.3725,0.3699,0.3786,0.3757,0.3724,0.3682,0.3767,0.3774,0.3789,0.3591,0.3589,0.3587,0.3585,0,0,0.3512,0.3565,0.3567,0.3584,0.3637,0.3646,0.372,0.3768,0.3803,0.382,0.3873,0.3901,0.3888,0.3892,0.3866,0.3905,0.3995,0.3862,0.3861,0.3885,0.4084,0.4012,0.402,0.3987,0.399,0.3993,0.405,0,0.3526,0.3568,0.3598,0.3647,0.3672,0.3719,0.3778,0.3827,0.3871,0.3923,0.3956,0.3989,0.3955,0.3961,0.4007,0.4003,0.4039,0.3982,0.3992,0.3992,0.3925,0.4037,0.3912,0.395,0.4063,0.4066,0.4067,0,0.351,0.3545,0.3595,0.3665,0.3681,0.3717,0.3808,0.386,0.3966,0.4002,0.4078,0.4093,0.4173,0.4114,0.4193,0.4161,0.4139,0.4129,0.413,0.4039,0.3949,0.3884,0.397,0.389,0.4088,0.4087,0.4085,0,0.3453,0.3531,0.3568,0.3591,0.3679,0.3717,0.3771,0.3876,0.3938,0.4055,0.4118,0.4205,0.4244,0.4279,0.4276,0.4243,0.4348,0.4287,0.4203,0.4196,0.408,0.4057,0.4096,0.434,0.434,0.434,0.4339,0,0.343,0.3448,0.3538,0.3547,0.3601,0.3674,0.3755,0.3825,0.3954,0.4035,0.4141,0.422,0.429,0.4355,0.4337,0.4335,0.4399,0.4253,0.4226,0.4112,0.4093,0.4005,0.3958,0.4342,0.4341,0.4341,0.434,0,0.3344,0.3405,0.3442,0.3537,0.3568,0.3599,0.3743,0.3799,0.3932,0.4053,0.4097,0.4256,0.434,0.4393,0.4439,0.4393,0.428,0.436,0.4213,0.4169,0.3992,0.3955,0.3802,0.3692,0.429,0.4289,0.4288,0,0.3295,0.331,0.3411,0.3442,0.3482,0.3563,0.3619,0.3763,0.3835,0.406,0.4098,0.4249,0.433,0.4408,0.437,0.4359,0.4223,0.4199,0.411,0.4003,0.3944,0.3773,0.3679,0.3996,0.3993,0.399,0.3988,0,0.3209,0.3252,0.3294,0.3369,0.3421,0.3502,0.3593,0.3649,0.3819,0.3927,0.407,0.4169,0.4278,0.423,0.4224,0.4196,0.4018,0.414,0.4082,0.3778,0.3543,0.3416,0.3924,0.3965,0.3967,0.3969,0.397,0.3971,0.3137,0.3157,0.3228,0.3281,0.3348,0.3407,0.3421,0.3532,0.3626,0.3725,0.3911,0.3967,0.4052,0.4044,0.3997,0.3863,0.3827,0.3747,0.373,0.3581,0.3418,0.3866,0.384,0.3842,0.3843,0.3844,0.3845,0,0.3032,0.3078,0.3136,0.3188,0.3204,0.3288,0.3363,0.3346,0.3376,0.3516,0.3602,0.3656,0.363,0.3663,0.3625,0.3497,0.3322,0.3405,0.3165,0.3108,0.3572,0.3505,0.3342,0.3342,0.3342,0.3343,0.3343,0.3343,0.2986,0.2992,0.3028,0.302,0.3051,0.3021,0.3026,0.3029,0.3087,0.3092,0.3101,0.3179,0.3371,0.3428,0.3325,0.3242,0.3007,0.2859,0.2843,0.3224,0.3255,0.3284,0.3213,0.2991,0.2991,0.2257,0.2251,0.2247]},{"header":{"parameterUnit":"m.s-1","parameterCategory":2,"la1":30.2991,"la2":30.254,"lo1":-89.0895,"lo2":-89.0444,"dy":0.0017,"dx":0.0017,"nx":28,"ny":28,"refTime":"2024-03-14T21:00:00:Z","depth":"0","parameterNumber":3,"parameterNumberName":"V-component_of_CURRENTS"},"data":[0,0,0,0,0,0,0,0,0,0,0,0,0,0,0,0,0,0,0,0,0,0,0,0,0,0,0,0,0,0,0,0,0,0,0,0,0,0,0,0,0,0,0,0,0,0,0,0,0,0,0,0,0,0,0,0,0,0,0.0162,0.0161,0,0.0134,0.0133,0.0133,0.0109,0.0109,0.0109,0.0109,0.0062,0.0061,0.006,0,0,0,0,0,0,0,0,0,0,0,0,0,0.0165,0.0165,0.0162,0.0161,0.0161,0.0134,0.0133,0.0133,0.0109,0.0109,0.0109,0.0109,0.0063,0.0061,0.006,0,0,0,0,0,0,0,0,0,0,0,0,0,0.0152,0.0165,0.0162,0.0147,0.0145,0.0134,0.0133,0.0133,0.011,0.0109,0.0109,0.0109,0.0063,0.0062,0.006,0.0055,0,0,0.0055,0.0054,0,0,0,0,0,0,0,0,0.0153,0.0152,0.0149,0.0148,0.0146,0.0125,0.0117,0.0106,0.011,0.0122,0.0109,0.0109,0.0082,0.0079,0.0074,0.0053,0.0051,0.0055,0.0054,0.0053,0.0053,0,0,0,0,0,0,0,0.0154,0.0153,0.015,0.0149,0.0147,0.0131,0.0129,0.0115,0.0103,0.0121,0.012,0.0118,0.0081,0.0075,0.0072,0.0051,0.0055,0.0053,0.0052,0.0052,0.0035,0.0036,0,0,0,0,0,0,0.0161,0.0154,0.0151,0.0149,0.015,0.0132,0.0129,0.0132,0.0104,0.01,0.0118,0.0117,0.0078,0.0074,0.0071,0.0083,0.0053,0.0052,0.0051,0.0035,0.0035,0.0036,0,0,0,0,0,0,0.0161,0.0161,0.0152,0.0151,0.0149,0.0132,0.0135,0.0131,0.0128,0.0102,0.0097,0.0118,0.0078,0.0073,0.0065,0.008,0.0051,0.005,0.0034,0.0035,0.0036,0.0095,0,0,0,0,0,0,0.0162,0.0162,0.0165,0.0152,0.0149,0.0155,0.0135,0.0131,0.0127,0.0125,0.0101,0.0096,0.0077,0.0068,0.0063,0.0077,0.0048,0.0033,0.0034,0.0035,0.0092,0.0097,0.0102,0,0,0,0,0,0.0162,0.0175,0.0166,0.0165,0.0155,0.0155,0.0153,0.0139,0.0128,0.0133,0.0115,0.0097,0.0071,0.0067,0.0062,0.0075,0.0033,0.0034,0.0035,0.009,0.0096,0.0102,0,0,0,0,0,0,0.018,0.0173,0.0163,0.0173,0.0167,0.0152,0.0155,0.0143,0.0133,0.0129,0.0102,0.0097,0.0094,0.0077,0.0073,0.0073,0.0049,0.0049,0.0092,0.0098,0.0103,0.0125,0.0047,0,0,0,0,0,0.0186,0.0192,0.0181,0.0188,0.0188,0.0171,0.0168,0.0159,0.0147,0.0142,0.0124,0.0106,0.0094,0.009,0.0074,0.0076,0.0057,0.0081,0.0086,0.0091,0.0105,0.0093,0.0098,0.004,0.004,0.004,0,0,0.0194,0.0191,0.0194,0.0192,0.0185,0.0197,0.0169,0.017,0.0183,0.0139,0.0147,0.012,0.0097,0.0098,0.0096,0.0088,0.0094,0.0092,0.0096,0.0108,0.0094,0.01,0.0105,0.004,0.004,0.004,0,0,0.0224,0.0213,0.0231,0.0228,0.0223,0.0216,0.0219,0.0207,0.0204,0.0206,0.0177,0.016,0.0145,0.0132,0.0124,0.0146,0.0116,0.014,0.0189,0.0177,0.0182,0.0186,0.0155,0.0156,0.0148,0.0148,0.0148,0,0.0236,0.0256,0.0237,0.0253,0.026,0.0229,0.0256,0.0249,0.0235,0.0243,0.0218,0.0195,0.0164,0.0175,0.0178,0.0159,0.0143,0.0169,0.0184,0.0188,0.0191,0.0159,0.0159,0.0151,0.0151,0.0151,0.015,0,0.0278,0.0292,0.0303,0.0316,0.0322,0.0335,0.0327,0.0331,0.0319,0.0311,0.0313,0.0268,0.0257,0.0241,0.0215,0.0227,0.0204,0.0188,0.0172,0.0201,0.0164,0.0164,0.0155,0.0154,0.0153,0.0153,0,0,0.0317,0.0332,0.0337,0.0358,0.0357,0.0372,0.0392,0.0411,0.0438,0.0405,0.044,0.0392,0.036,0.0348,0.0308,0.0294,0.0283,0.0257,0.0255,0.0232,0.0249,0.0225,0.0221,0.0275,0.0275,0.0276,0.0209,0,0.036,0.0408,0.0403,0.0455,0.0483,0.0467,0.0495,0.0503,0.0501,0.0523,0.0477,0.0485,0.0404,0.0403,0.0372,0.0322,0.0287,0.0302,0.022,0.0218,0.0197,0.0222,0.0252,0.0196,0.0209,0.0208,0.0208,0,0.0412,0.0438,0.0493,0.0538,0.0551,0.0572,0.0619,0.0642,0.0654,0.0655,0.064,0.0604,0.0577,0.0505,0.0416,0.0433,0.034,0.0286,0.0282,0.0244,0.0194,0.0171,0.0194,0.0027,0.0207,0.0207,0.0207,0,0.0463,0.0509,0.0559,0.0568,0.0605,0.0633,0.0659,0.0682,0.0728,0.0744,0.078,0.072,0.0714,0.0606,0.0473,0.045,0.0379,0.0329,0.0211,0.0207,0.0209,0.0205,0.007,0.0252,0.0252,0.0252,0.0252,0,0.0519,0.056,0.0585,0.061,0.0687,0.069,0.0773,0.0791,0.0837,0.0919,0.085,0.0904,0.0743,0.0678,0.0528,0.0381,0.0411,0.0228,0.0198,0.0228,0.0226,0.0062,-0.0027,0.0249,0.025,0.025,0.0251,0,0.0571,0.0581,0.0645,0.0689,0.0713,0.077,0.0857,0.0917,0.0949,0.1057,0.1075,0.105,0.0973,0.0795,0.0632,0.0466,0.023,0.0249,0.0286,0.0261,-0.0016,-0.0102,-0.0261,-0.0334,0.0108,0.0107,0.0106,0,0.0602,0.0636,0.0705,0.0754,0.0776,0.0857,0.0922,0.0973,0.1051,0.1165,0.1232,0.1192,0.1205,0.0946,0.0652,0.0385,0.0213,0.0205,0.0155,-0.0019,-0.0137,-0.0206,-0.026,0.0168,0.0168,0.0168,0.0168,0,0.0664,0.0681,0.0731,0.0828,0.09,0.1,0.1097,0.118,0.1269,0.1379,0.1516,0.1545,0.1301,0.1065,0.0672,0.0475,0.0102,0.0192,0.0015,-0.0094,-0.0178,-0.0264,0.0178,0.0167,0.0167,0.0167,0.0167,0.0167,0.071,0.0758,0.082,0.0915,0.1006,0.1135,0.1237,0.1363,0.1529,0.1718,0.1723,0.1813,0.1441,0.0929,0.0626,0.0082,0.0066,-0.0086,-0.0176,-0.023,-0.0298,0.0131,0.0085,0.0085,0.0085,0.0084,0.0084,0,0.0769,0.0822,0.0908,0.1026,0.1135,0.1174,0.1352,0.1475,0.1696,0.1876,0.2006,0.1896,0.1427,0.0922,0.0193,-0.0203,-0.0343,-0.0417,-0.0507,-0.0546,-0.0156,-0.0151,-0.0252,-0.0252,-0.0252,-0.0251,-0.0251,-0.0251,0.0803,0.089,0.093,0.1113,0.1203,0.137,0.1481,0.1685,0.185,0.2098,0.2183,0.2202,0.1834,0.0546,-0.0341,-0.055,-0.0806,-0.0868,-0.1013,-0.0752,-0.0728,-0.0706,-0.0723,-0.0942,-0.0943,-0.1343,-0.1347,-0.135]}],[{"header":{"parameterUnit":"m.s-1","parameterCategory":2,"la1":30.2991,"la2":30.254,"lo1":-89.0895,"lo2":-89.0444,"dy":0.0017,"dx":0.0017,"nx":28,"ny":28,"refTime":"2024-03-14T21:00:00:Z","depth":"2","parameterNumber":2,"parameterNumberName":"U-component_of_CURRENTS"},"data":[0,0,0,0,0,0,0,0,0,0,0,0,0,0,0,0,0,0,0,0,0,0,0,0,0,0,0,0,0,0,0,0,0,0,0,0,0,0,0,0,0,0,0,0,0,0,0,0,0,0,0,0,0,0,0,0,0,0,0.2586,0.2586,0,0.2594,0.2594,0.2593,0.2581,0.2581,0.2581,0.2581,0.258,0.258,0.258,0,0,0,0,0,0,0,0,0,0,0,0,0,0.2555,0.2555,0.2586,0.2586,0.2586,0.2594,0.2594,0.2593,0.2581,0.2581,0.2581,0.2581,0.258,0.258,0.258,0,0,0,0,0,0,0,0,0,0,0,0,0,0.2564,0.2556,0.2585,0.2583,0.2583,0.2594,0.2594,0.2593,0.2581,0.2581,0.2581,0.258,0.258,0.258,0.258,0.2587,0,0,0.2581,0.2581,0,0,0,0,0,0,0,0,0.2563,0.2564,0.2583,0.2583,0.2583,0.2588,0.2583,0.2592,0.2581,0.2579,0.2581,0.258,0.2584,0.2584,0.2582,0.2587,0.2587,0.2581,0.2581,0.2581,0.2581,0,0,0,0,0,0,0,0.2563,0.2564,0.2586,0.2583,0.2584,0.258,0.2581,0.2584,0.2581,0.2579,0.2579,0.2584,0.2584,0.2582,0.2582,0.2587,0.2581,0.2581,0.2581,0.2581,0.2648,0.2649,0,0,0,0,0,0,0.2568,0.2564,0.2586,0.2587,0.2575,0.2581,0.2582,0.2585,0.2581,0.2581,0.2585,0.2584,0.2582,0.2582,0.2582,0.2642,0.2581,0.2581,0.2582,0.2646,0.2648,0.265,0,0,0,0,0,0,0.2567,0.2569,0.2586,0.2577,0.258,0.2582,0.2586,0.2585,0.2598,0.2586,0.2585,0.2599,0.2582,0.2582,0.26,0.2639,0.2582,0.2582,0.2644,0.2647,0.2649,0.2727,0,0,0,0,0,0,0.2566,0.2569,0.2579,0.2578,0.258,0.2606,0.2586,0.2586,0.2602,0.2601,0.2598,0.2596,0.2581,0.26,0.2601,0.2639,0.2582,0.2642,0.2645,0.2648,0.2723,0.2732,0.274,0,0,0,0,0,0.2565,0.2575,0.2579,0.2583,0.2592,0.2608,0.2609,0.2608,0.2603,0.2616,0.2613,0.2597,0.262,0.2601,0.2602,0.2641,0.2641,0.2644,0.2648,0.2719,0.273,0.274,0,0,0,0,0,0,0.2565,0.2575,0.258,0.2593,0.2609,0.2607,0.2619,0.262,0.2628,0.2629,0.2613,0.2612,0.2646,0.2632,0.2612,0.2669,0.263,0.2634,0.2684,0.2695,0.2703,0.271,0.2582,0,0,0,0,0,0.2572,0.2583,0.2596,0.2609,0.2619,0.2624,0.2632,0.2635,0.2639,0.2642,0.264,0.2643,0.266,0.2667,0.2672,0.27,0.2705,0.2727,0.2736,0.2743,0.2749,0.28,0.2814,0.2662,0.2662,0.2661,0,0,0.2574,0.2584,0.2589,0.2611,0.262,0.2639,0.2628,0.2648,0.2668,0.2642,0.2667,0.2674,0.2674,0.2708,0.2722,0.2701,0.279,0.2748,0.2755,0.2756,0.2806,0.282,0.2834,0.2664,0.2664,0.2663,0,0,0.2583,0.2597,0.2611,0.2628,0.2653,0.266,0.2672,0.2685,0.2697,0.2727,0.2717,0.2747,0.2762,0.2774,0.2782,0.2843,0.2836,0.2849,0.2899,0.2948,0.2961,0.2973,0.3,0.3013,0.2852,0.2853,0.2853,0,0.2588,0.2605,0.2619,0.264,0.2658,0.2673,0.2696,0.2714,0.2731,0.2754,0.2747,0.2799,0.2797,0.2849,0.2871,0.2865,0.2884,0.2858,0.2961,0.2972,0.2983,0.3007,0.3021,0.2857,0.2856,0.2856,0.2856,0,0.2606,0.2626,0.2638,0.2669,0.2694,0.2716,0.2746,0.2775,0.2797,0.2818,0.2879,0.2886,0.2921,0.2931,0.2921,0.2998,0.2984,0.2968,0.2935,0.3003,0.3024,0.3037,0.2863,0.2861,0.286,0.2859,0,0,0.259,0.264,0.2643,0.266,0.2712,0.2725,0.2781,0.2831,0.287,0.2909,0.2964,0.3008,0.3026,0.3036,0.3035,0.3073,0.3164,0.3058,0.3059,0.3086,0.3269,0.321,0.3218,0.3173,0.3176,0.3178,0.3255,0,0.2598,0.2633,0.2665,0.27,0.272,0.2766,0.2812,0.2865,0.2918,0.2974,0.3019,0.3065,0.3063,0.3085,0.3135,0.3155,0.3201,0.3143,0.3198,0.3199,0.314,0.3232,0.2973,0.3016,0.3267,0.3269,0.3271,0,0.2596,0.2623,0.266,0.2712,0.2726,0.2758,0.2838,0.2884,0.2981,0.3022,0.3101,0.3135,0.3213,0.3188,0.3291,0.3259,0.3279,0.3287,0.329,0.3216,0.3164,0.2988,0.303,0.3292,0.329,0.3288,0.3287,0,0.2554,0.261,0.2637,0.2656,0.2726,0.2761,0.2806,0.2903,0.2961,0.3058,0.312,0.3207,0.3266,0.3317,0.3368,0.3338,0.3466,0.3421,0.3387,0.3381,0.316,0.3131,0.3497,0.3497,0.3497,0.3497,0.3496,0,0.2534,0.2548,0.2619,0.2628,0.2674,0.2736,0.2808,0.2865,0.2977,0.3047,0.3144,0.3216,0.3307,0.3395,0.3409,0.3455,0.3512,0.3417,0.3411,0.3179,0.3153,0.3382,0.3367,0.3499,0.3499,0.3498,0.3498,0,0.247,0.2517,0.2546,0.2622,0.2652,0.2683,0.2804,0.2851,0.2969,0.3069,0.3106,0.326,0.3363,0.3446,0.3528,0.3511,0.3541,0.3537,0.3253,0.3212,0.3406,0.3394,0.3499,0.3497,0.3496,0.3496,0.3495,0,0.2435,0.2447,0.2526,0.2549,0.2583,0.2655,0.27,0.2824,0.2884,0.3081,0.3113,0.3277,0.3355,0.3481,0.3476,0.3504,0.3554,0.3261,0.3155,0.343,0.3413,0.3403,0.3394,0.2888,0.2883,0.2878,0.2874,0,0.2372,0.2406,0.2431,0.2482,0.2525,0.2578,0.2658,0.2708,0.2851,0.2944,0.3062,0.3149,0.3301,0.3224,0.329,0.326,0.3234,0.3169,0.355,0.2933,0.2862,0.2843,0.2852,0.2834,0.2838,0.2841,0.2843,0.2845,0.2322,0.2326,0.2365,0.24,0.2446,0.2471,0.2473,0.256,0.2633,0.2728,0.2899,0.2943,0.3013,0.2983,0.2905,0.285,0.3066,0.2907,0.2917,0.2933,0.2854,0.2786,0.2728,0.2731,0.2734,0.2736,0.2739,0,0.2242,0.2259,0.2282,0.2304,0.229,0.2366,0.2409,0.2377,0.239,0.2524,0.2606,0.2465,0.2452,0.2518,0.2382,0.2391,0.2332,0.2278,0.2168,0.2213,0.2252,0.2134,0.1818,0.1815,0.1812,0.1809,0,0,0.2206,0.2181,0.2185,0.2132,0.2152,0.2098,0.2092,0.2065,0.2109,0.2101,0.2127,0.235,0.2463,0.2109,0.2071,0.1914,0.2035,0.1838,0.2587,0.2505,0.2539,0.2642,0.2515,0,0,0,0,0]},{"header":{"parameterUnit":"m.s-1","parameterCategory":2,"la1":30.2991,"la2":30.254,"lo1":-89.0895,"lo2":-89.0444,"dy":0.0017,"dx":0.0017,"nx":28,"ny":28,"refTime":"2024-03-14T21:00:00:Z","depth":"2","parameterNumber":3,"parameterNumberName":"V-component_of_CURRENTS"},"data":[0,0,0,0,0,0,0,0,0,0,0,0,0,0,0,0,0,0,0,0,0,0,0,0,0,0,0,0,0,0,0,0,0,0,0,0,0,0,0,0,0,0,0,0,0,0,0,0,0,0,0,0,0,0,0,0,0,0,0.0113,0.0112,0,0.0086,0.0086,0.0085,0.0068,0.0068,0.0068,0.0067,0.0027,0.0026,0.0025,0,0,0,0,0,0,0,0,0,0,0,0,0,0.0119,0.0119,0.0113,0.0112,0.0112,0.0086,0.0086,0.0085,0.0068,0.0068,0.0067,0.0067,0.0028,0.0026,0.0025,0,0,0,0,0,0,0,0,0,0,0,0,0,0.0106,0.0119,0.0113,0.01,0.0099,0.0086,0.0086,0.0085,0.0068,0.0068,0.0067,0.0067,0.0028,0.0027,0.0025,0.0019,0,0,0.0021,0.002,0,0,0,0,0,0,0,0,0.0107,0.0106,0.0102,0.0101,0.01,0.008,0.0073,0.0062,0.0068,0.0079,0.0067,0.0067,0.0044,0.0041,0.0036,0.0017,0.0015,0.0021,0.002,0.0019,0.0019,0,0,0,0,0,0,0,0.0108,0.0107,0.0102,0.0102,0.01,0.0086,0.0084,0.0071,0.0062,0.0078,0.0077,0.0075,0.0043,0.0038,0.0035,0.0015,0.0021,0.0019,0.0018,0.0018,-0.0002,-0.0001,0,0,0,0,0,0,0.0114,0.0108,0.0103,0.0101,0.0103,0.0086,0.0084,0.0086,0.0063,0.0059,0.0075,0.0074,0.004,0.0037,0.0034,0.0041,0.0019,0.0018,0.0017,-0.0002,-0.0001,-0.0001,0,0,0,0,0,0,0.0114,0.0114,0.0104,0.0104,0.0101,0.0086,0.0089,0.0086,0.0083,0.006,0.0056,0.0075,0.004,0.0036,0.0029,0.0039,0.0017,0.0016,-0.0002,-0.0002,-0.0001,0.0045,0,0,0,0,0,0,0.0114,0.0114,0.0117,0.0104,0.0102,0.0104,0.0089,0.0086,0.0081,0.008,0.0059,0.0055,0.004,0.0031,0.0027,0.0036,0.0014,-0.0003,-0.0002,-0.0001,0.0043,0.0047,0.0051,0,0,0,0,0,0.0115,0.0124,0.0118,0.0117,0.0107,0.0105,0.0103,0.0091,0.0082,0.0086,0.0071,0.0056,0.0033,0.003,0.0026,0.0035,-0.0003,-0.0002,-0.0001,0.0041,0.0046,0.0051,0,0,0,0,0,0,0.0129,0.0123,0.0115,0.0123,0.0116,0.0102,0.0104,0.0094,0.0085,0.0082,0.006,0.0055,0.0052,0.0037,0.0034,0.0031,0.0012,0.0012,0.0046,0.0051,0.0055,0.0071,0.0013,0,0,0,0,0,0.0134,0.0139,0.0129,0.0134,0.0133,0.0118,0.0114,0.0107,0.0097,0.0092,0.0077,0.0061,0.0051,0.0046,0.0033,0.0032,0.001,0.0034,0.0038,0.0041,0.0051,0.0028,0.003,0.0002,0.0002,0.0002,0,0,0.0141,0.0137,0.014,0.0138,0.013,0.0139,0.0116,0.0115,0.0126,0.0089,0.0095,0.0072,0.0053,0.0052,0.0049,0.0042,0.0036,0.0042,0.0045,0.0054,0.0029,0.0031,0.0034,0.0002,0.0002,0.0002,0,0,0.0164,0.0155,0.017,0.0168,0.0162,0.0154,0.0156,0.0144,0.0142,0.0143,0.0119,0.0104,0.0089,0.0077,0.007,0.0085,0.0055,0.008,0.0116,0.0092,0.0095,0.0096,0.0066,0.0064,0.0085,0.0085,0.0085,0,0.0173,0.0191,0.0173,0.0188,0.0195,0.0165,0.0187,0.0179,0.0167,0.0172,0.0153,0.0128,0.0103,0.0107,0.011,0.0095,0.0075,0.0101,0.0098,0.0099,0.01,0.0068,0.0066,0.0087,0.0087,0.0087,0.0086,0,0.0208,0.0223,0.0231,0.0242,0.0245,0.0256,0.0247,0.0248,0.0236,0.0227,0.0223,0.0185,0.0174,0.0159,0.0139,0.0138,0.0118,0.0103,0.0088,0.0106,0.0071,0.0068,0.009,0.009,0.0089,0.0088,0,0,0.0237,0.0254,0.0258,0.028,0.0276,0.0289,0.0302,0.0312,0.0332,0.03,0.0321,0.0281,0.0253,0.0242,0.0208,0.0184,0.0161,0.0151,0.0149,0.0124,0.0106,0.0085,0.0079,0.0146,0.0146,0.0146,0.0075,0,0.0274,0.0318,0.0314,0.036,0.0385,0.037,0.0392,0.0395,0.0386,0.0395,0.0348,0.0346,0.0288,0.0282,0.0248,0.0191,0.0157,0.0181,0.009,0.0087,0.0069,0.0076,0.0101,0.004,0.0072,0.0072,0.0071,0,0.0318,0.0342,0.0392,0.0436,0.0447,0.0465,0.0499,0.0519,0.0514,0.0508,0.0484,0.0442,0.0403,0.0349,0.0253,0.0272,0.0193,0.0138,0.0133,0.0099,0.0061,0.0028,0.0033,0.0066,0.0066,0.0067,0.0067,0,0.036,0.0405,0.0449,0.0461,0.0495,0.052,0.0542,0.0552,0.0591,0.0579,0.0598,0.0528,0.0513,0.0406,0.028,0.0268,0.0172,0.0138,0.004,0.0037,0.0033,0.003,0.0063,0.0063,0.0063,0.0064,0.0064,0,0.0409,0.0447,0.0473,0.0498,0.057,0.0573,0.0645,0.0655,0.0683,0.0743,0.0662,0.0685,0.0528,0.0451,0.0315,0.0176,0.0193,0.005,0.0022,0.0048,0.0048,0.0053,0.0053,0.0061,0.0061,0.0062,0.0062,0,0.0453,0.0464,0.0525,0.0569,0.0593,0.0647,0.0728,0.0779,0.0792,0.0867,0.0869,0.081,0.0709,0.0541,0.0372,0.0238,0.0094,0.0035,0.0072,0.0049,-0.0039,-0.0036,-0.0084,-0.0085,-0.0086,-0.0087,-0.0088,0,0.048,0.0512,0.0582,0.0629,0.0652,0.0731,0.0793,0.0834,0.0898,0.0952,0.0998,0.0919,0.0887,0.0625,0.0371,0.0129,0.0094,-0.0019,-0.0046,-0.003,-0.0053,-0.0048,-0.0044,-0.004,-0.0041,-0.0041,-0.0041,0,0.0535,0.0553,0.0601,0.0697,0.0768,0.0864,0.0955,0.1025,0.1087,0.1147,0.1206,0.1181,0.0939,0.0698,0.0358,0.0192,0.0019,-0.0033,-0.0016,-0.0003,0.0007,-0.0014,-0.0011,-0.0043,-0.0043,-0.0043,-0.0043,-0.0043,0.0578,0.0622,0.0683,0.0777,0.0867,0.0986,0.1076,0.1172,0.1291,0.1388,0.1357,0.1328,0.1049,0.0621,0.0319,-0.0002,0.0016,-0.0102,-0.0099,-0.0097,-0.0075,-0.0067,-0.0128,-0.0128,-0.0128,-0.0129,-0.0129,0,0.0634,0.068,0.0763,0.0875,0.0977,0.1021,0.1177,0.1264,0.1409,0.1486,0.1528,0.1269,0.0995,0.0667,0.0193,-0.0087,-0.0105,-0.0179,-0.0141,-0.0136,-0.0132,-0.0112,-0.0175,-0.0176,-0.0177,-0.0178,0,0,0.0664,0.0743,0.0779,0.0946,0.1032,0.1181,0.1278,0.1405,0.1492,0.1567,0.1553,0.1501,0.1105,0.0752,0.037,0.0094,0.0044,0.004,0.0111,0.0207,0.0214,-0.0053,-0.0012,0,0,0,0,0]}],[{"header":{"parameterUnit":"m.s-1","parameterCategory":2,"la1":30.2991,"la2":30.254,"lo1":-89.0895,"lo2":-89.0444,"dy":0.0017,"dx":0.0017,"nx":28,"ny":28,"refTime":"2024-03-14T21:00:00:Z","depth":"4","parameterNumber":2,"parameterNumberName":"U-component_of_CURRENTS"},"data":[0,0,0,0,0,0,0,0,0,0,0,0,0,0,0,0,0,0,0,0,0,0,0,0,0,0,0,0,0,0,0,0,0,0,0,0,0,0,0,0,0,0,0,0,0,0,0,0,0,0,0,0,0,0,0,0,0,0,0.1613,0.1614,0,0.1669,0.167,0.167,0.1718,0.1719,0.1719,0.172,0.1789,0.179,0.1791,0,0,0,0,0,0,0,0,0,0,0,0,0,0.1534,0.1535,0.1613,0.1614,0.1615,0.1669,0.167,0.167,0.1718,0.1719,0.172,0.172,0.1789,0.179,0.1791,0,0,0,0,0,0,0,0,0,0,0,0,0,0.1575,0.1535,0.1613,0.1647,0.165,0.1669,0.167,0.1671,0.1718,0.1719,0.172,0.1721,0.1788,0.179,0.1792,0.1781,0,0,0.1797,0.1798,0,0,0,0,0,0,0,0,0.1573,0.1578,0.1641,0.1644,0.1649,0.169,0.1667,0.1709,0.1717,0.169,0.172,0.1721,0.1757,0.1762,0.1767,0.1784,0.1787,0.1797,0.1798,0.1799,0.1799,0,0,0,0,0,0,0,0.157,0.1576,0.1633,0.1642,0.1647,0.1655,0.1662,0.1675,0.1716,0.1692,0.1697,0.1706,0.176,0.1765,0.1769,0.1788,0.1797,0.1799,0.18,0.18,0.1907,0.1909,0,0,0,0,0,0,0.1567,0.1573,0.1632,0.1635,0.1615,0.1655,0.1663,0.1674,0.1715,0.1723,0.1705,0.1708,0.1762,0.1767,0.1772,0.1858,0.1799,0.1801,0.1802,0.1905,0.1907,0.1909,0,0,0,0,0,0,0.1565,0.1571,0.1629,0.1607,0.1615,0.1656,0.1667,0.1674,0.1717,0.1725,0.1733,0.1745,0.1763,0.1769,0.1817,0.1857,0.1801,0.1803,0.1903,0.1906,0.1908,0.1969,0,0,0,0,0,0,0.1562,0.157,0.1594,0.1607,0.1616,0.1663,0.1667,0.1675,0.172,0.1725,0.1761,0.1767,0.1764,0.1814,0.1819,0.1859,0.1804,0.1901,0.1904,0.1907,0.1965,0.1973,0.1981,0,0,0,0,0,0.1559,0.1577,0.1595,0.1603,0.1642,0.1664,0.167,0.1701,0.1721,0.1743,0.1772,0.1768,0.1839,0.1817,0.1822,0.1863,0.1899,0.1903,0.1907,0.1961,0.1972,0.1981,0,0,0,0,0,0,0.1553,0.1584,0.1604,0.1632,0.166,0.1674,0.17,0.1721,0.1761,0.1778,0.1786,0.1793,0.1851,0.1849,0.1825,0.1905,0.187,0.1875,0.191,0.1919,0.1927,0.1925,0.1806,0,0,0,0,0,0.1563,0.1591,0.1616,0.1644,0.1659,0.1689,0.171,0.1732,0.1759,0.178,0.1806,0.1836,0.1864,0.1886,0.1906,0.1947,0.1953,0.1979,0.1987,0.1993,0.1996,0.2046,0.2059,0.1922,0.1922,0.1922,0,0,0.157,0.1592,0.161,0.1647,0.1671,0.1696,0.1705,0.1745,0.1777,0.178,0.1842,0.1867,0.1882,0.193,0.1956,0.1938,0.2037,0.1998,0.2004,0.2002,0.2052,0.2065,0.2076,0.1925,0.1924,0.1924,0,0,0.1582,0.1617,0.1642,0.1666,0.1711,0.1726,0.1747,0.1785,0.1819,0.1872,0.1887,0.1937,0.1979,0.1998,0.2011,0.2076,0.2078,0.2092,0.2132,0.2182,0.2193,0.2203,0.223,0.2242,0.2096,0.2096,0.2096,0,0.1595,0.1624,0.1653,0.1678,0.1705,0.1744,0.1773,0.1805,0.186,0.1893,0.1904,0.1992,0.2009,0.2064,0.2091,0.2094,0.2118,0.2093,0.2192,0.2202,0.2211,0.2236,0.2249,0.21,0.2099,0.2099,0.2099,0,0.1611,0.1649,0.1665,0.1711,0.1744,0.1777,0.1819,0.1868,0.1917,0.1951,0.2035,0.2063,0.2116,0.2134,0.2134,0.2213,0.2207,0.2196,0.2165,0.2229,0.2251,0.2263,0.2105,0.2103,0.2102,0.2101,0,0,0.1601,0.1665,0.1675,0.1701,0.1767,0.1786,0.1854,0.1916,0.1966,0.2033,0.2099,0.2161,0.2195,0.2211,0.2228,0.227,0.2358,0.227,0.2271,0.2292,0.2466,0.2311,0.2309,0.2375,0.2378,0.238,0.2455,0,0.1611,0.1655,0.1692,0.1743,0.1768,0.1829,0.1881,0.1948,0.2016,0.2088,0.2145,0.2214,0.2218,0.226,0.2307,0.2348,0.2393,0.2338,0.2405,0.2406,0.2257,0.2318,0.2388,0.2464,0.2466,0.2468,0.247,0,0.1609,0.1642,0.1691,0.1757,0.1776,0.182,0.1915,0.1971,0.2079,0.2134,0.2221,0.2268,0.2355,0.2344,0.2453,0.2424,0.2456,0.2476,0.248,0.2319,0.2272,0.2387,0.2491,0.2489,0.2488,0.2486,0.2485,0,0.1565,0.1636,0.1677,0.17,0.1783,0.1832,0.189,0.1996,0.2059,0.2179,0.2244,0.2337,0.2411,0.2466,0.253,0.2508,0.2635,0.2601,0.2487,0.2476,0.2566,0.2554,0.2676,0.2676,0.2676,0.2675,0.2675,0,0.1537,0.1572,0.1665,0.1681,0.1742,0.1816,0.19,0.1973,0.2094,0.2164,0.2275,0.2338,0.2454,0.2538,0.2563,0.2565,0.267,0.25,0.2489,0.2589,0.258,0.2574,0.2561,0.2678,0.2677,0.2677,0.2676,0,0.1472,0.1535,0.1583,0.1682,0.1721,0.1768,0.1903,0.1952,0.2088,0.2188,0.2236,0.2383,0.2478,0.2569,0.2665,0.2599,0.2614,0.2591,0.2701,0.2694,0.2409,0.2399,0.2446,0.2441,0.2437,0.2433,0.2431,0,0.1436,0.1457,0.1569,0.1602,0.1654,0.1742,0.1795,0.1935,0.1992,0.2188,0.2217,0.2374,0.2451,0.2466,0.2561,0.2593,0.2569,0.255,0.2459,0.2403,0.2389,0.2385,0.238,0.2424,0.2423,0.2422,0.2421,0,0.1367,0.1425,0.1465,0.1533,0.1595,0.1652,0.1746,0.1778,0.1933,0.208,0.2149,0.2205,0.2309,0.2366,0.2426,0.2439,0.2538,0.2507,0.2514,0.2428,0.2377,0.2366,0.2367,0.2407,0.2409,0.241,0.2411,0,0.1324,0.1334,0.1397,0.1442,0.1513,0.1532,0.1598,0.1664,0.1744,0.1957,0.1974,0.2137,0.2283,0.2289,0.2336,0.2345,0.2296,0.2202,0.2224,0.224,0.2137,0.204,0.1963,0,0,0,0,0,0.1269,0.1264,0.1297,0.1332,0.1393,0.1436,0.1544,0.1614,0.177,0.1769,0.187,0.1952,0.2023,0.2106,0.2074,0.2238,0.2302,0.2188,0.2203,0.2329,0.2346,0.2243,0,0,0,0,0,0,0.123,0.1259,0.1257,0.1227,0.1232,0.1284,0.1348,0.1455,0.1466,0.1639,0.1693,0.1826,0.1931,0.2029,0.2036,0.2061,0.2026,0.2294,0.2289,0.232,0.2335,0.2348,0.2248,0,0,0,0,0]},{"header":{"parameterUnit":"m.s-1","parameterCategory":2,"la1":30.2991,"la2":30.254,"lo1":-89.0895,"lo2":-89.0444,"dy":0.0017,"dx":0.0017,"nx":28,"ny":28,"refTime":"2024-03-14T21:00:00:Z","depth":"4","parameterNumber":3,"parameterNumberName":"V-component_of_CURRENTS"},"data":[0,0,0,0,0,0,0,0,0,0,0,0,0,0,0,0,0,0,0,0,0,0,0,0,0,0,0,0,0,0,0,0,0,0,0,0,0,0,0,0,0,0,0,0,0,0,0,0,0,0,0,0,0,0,0,0,0,0,0.011,0.011,0,0.0093,0.0093,0.0092,0.0084,0.0084,0.0084,0.0084,0.0058,0.0057,0.0057,0,0,0,0,0,0,0,0,0,0,0,0,0,0.0114,0.0114,0.011,0.011,0.0109,0.0093,0.0093,0.0092,0.0084,0.0084,0.0084,0.0084,0.0058,0.0058,0.0057,0,0,0,0,0,0,0,0,0,0,0,0,0,0.0106,0.0114,0.011,0.0103,0.0102,0.0093,0.0093,0.0092,0.0084,0.0084,0.0084,0.0084,0.0059,0.0058,0.0057,0.0051,0,0,0.0053,0.0053,0,0,0,0,0,0,0,0,0.0106,0.0106,0.0104,0.0104,0.0103,0.009,0.0084,0.0078,0.0084,0.0091,0.0084,0.0084,0.0068,0.0066,0.0063,0.0049,0.0048,0.0053,0.0053,0.0052,0.0052,0,0,0,0,0,0,0,0.0107,0.0106,0.0103,0.0104,0.0103,0.0094,0.0093,0.0083,0.008,0.009,0.009,0.0088,0.0068,0.0064,0.0063,0.0048,0.0053,0.0053,0.0052,0.0051,0.0037,0.0037,0,0,0,0,0,0,0.011,0.0107,0.0104,0.0103,0.0104,0.0094,0.0093,0.0094,0.008,0.0078,0.0088,0.0087,0.0066,0.0064,0.0062,0.0068,0.0052,0.0051,0.0051,0.0037,0.0037,0.0037,0,0,0,0,0,0,0.011,0.011,0.0104,0.0104,0.0103,0.0094,0.0096,0.0094,0.0094,0.0078,0.0076,0.0089,0.0066,0.0063,0.006,0.0067,0.0051,0.005,0.0037,0.0037,0.0037,0.0072,0,0,0,0,0,0,0.0111,0.011,0.0114,0.0105,0.0103,0.0105,0.0096,0.0094,0.0092,0.0092,0.0078,0.0076,0.0066,0.0061,0.0059,0.0065,0.0049,0.0036,0.0037,0.0037,0.007,0.0073,0.0076,0,0,0,0,0,0.0111,0.0118,0.0114,0.0114,0.0108,0.0106,0.0104,0.0097,0.0092,0.0096,0.0087,0.0076,0.0062,0.0061,0.0058,0.0064,0.0036,0.0037,0.0037,0.0069,0.0073,0.0076,0,0,0,0,0,0,0.0122,0.0118,0.0113,0.0119,0.0115,0.0105,0.0106,0.01,0.0096,0.0095,0.008,0.0077,0.0076,0.0065,0.0064,0.006,0.0047,0.0047,0.0072,0.0075,0.0078,0.009,0.0048,0,0,0,0,0,0.0125,0.013,0.0123,0.0127,0.0126,0.0116,0.0114,0.011,0.0104,0.0102,0.0092,0.0082,0.0075,0.0072,0.0063,0.0062,0.0041,0.0063,0.0065,0.0068,0.0075,0.0048,0.0048,0.0039,0.0039,0.0039,0,0,0.0131,0.0129,0.0131,0.013,0.0125,0.0132,0.0116,0.0116,0.0125,0.0099,0.0107,0.009,0.0076,0.0076,0.0075,0.0069,0.0059,0.0068,0.0071,0.0077,0.0048,0.0049,0.005,0.004,0.0039,0.0039,0,0,0.0147,0.0142,0.0153,0.0153,0.015,0.0144,0.0146,0.0138,0.0139,0.0141,0.0125,0.0113,0.0104,0.0094,0.0088,0.01,0.0073,0.0097,0.0121,0.0094,0.0095,0.0095,0.0066,0.0063,0.0099,0.0099,0.0099,0,0.0154,0.0168,0.0156,0.0167,0.0174,0.0153,0.017,0.0166,0.0158,0.0162,0.015,0.0132,0.0114,0.0114,0.0117,0.0106,0.0086,0.0111,0.0098,0.0098,0.0097,0.0067,0.0064,0.01,0.01,0.01,0.01,0,0.0179,0.0192,0.0198,0.0208,0.0212,0.0222,0.0216,0.0218,0.0211,0.0204,0.0201,0.0173,0.0164,0.0152,0.0139,0.0131,0.0116,0.0103,0.0091,0.01,0.0068,0.0064,0.0103,0.0102,0.0102,0.0101,0,0,0.0196,0.0214,0.0218,0.0237,0.0237,0.0247,0.0258,0.0267,0.0281,0.0258,0.0271,0.0243,0.0221,0.0213,0.0187,0.016,0.0133,0.0135,0.0133,0.0108,0.0072,0.006,0.0054,0.0118,0.0118,0.0117,0.0049,0,0.0222,0.0257,0.0258,0.0296,0.0317,0.0309,0.0328,0.033,0.0323,0.0326,0.0289,0.0288,0.0247,0.0244,0.0209,0.0157,0.0125,0.0152,0.0065,0.0062,0.0052,0.005,0.0116,0.0045,0.0044,0.0044,0.0043,0,0.0251,0.0273,0.0315,0.0355,0.0364,0.0382,0.041,0.0426,0.0418,0.0414,0.0392,0.0359,0.0322,0.0284,0.0193,0.0214,0.0148,0.0098,0.0094,0.007,0.0043,0.0034,0.0035,0.0036,0.0037,0.0037,0.0038,0,0.0277,0.0318,0.0356,0.0367,0.0401,0.0424,0.0446,0.0453,0.0482,0.0469,0.0479,0.0419,0.0402,0.0311,0.0204,0.0199,0.0097,0.0077,0.0001,-0.0001,0.0015,0.0016,0.0008,0.0008,0.0008,0.0009,0.0009,0,0.0308,0.0341,0.0374,0.0395,0.0458,0.0466,0.0525,0.0535,0.0555,0.0593,0.0531,0.0536,0.0409,0.0333,0.0223,0.0102,0.0109,0.0006,-0.0018,0.003,0.0033,0.0012,0.0013,0.0006,0.0006,0.0007,0.0007,0,0.0331,0.0349,0.0402,0.0448,0.0473,0.052,0.0593,0.0631,0.0642,0.0687,0.0688,0.0627,0.0528,0.039,0.024,0.0141,0.0017,-0.003,0.0034,0.0015,-0.0071,-0.0067,-0.0121,-0.0122,-0.0123,-0.0124,-0.0124,0,0.0346,0.0374,0.0446,0.0487,0.0514,0.0584,0.0638,0.0676,0.0719,0.0744,0.0766,0.0688,0.0626,0.0412,0.0254,0.0038,0.0003,-0.0069,-0.0076,-0.0065,-0.0084,-0.0078,-0.0073,-0.0125,-0.0126,-0.0126,-0.0126,0,0.0377,0.0401,0.0444,0.053,0.0595,0.0677,0.0752,0.0791,0.0836,0.0844,0.0834,0.0721,0.0607,0.0422,0.0254,0.0098,-0.0027,-0.0078,-0.0078,-0.0085,-0.0071,-0.0087,-0.0082,-0.0129,-0.0128,-0.0128,-0.0128,0,0.0403,0.0438,0.0494,0.0572,0.0659,0.0745,0.0785,0.0835,0.088,0.0897,0.089,0.0764,0.0688,0.0453,0.03,0.0142,0.0095,0.0033,0.0027,0.0028,0.0084,0.0125,0.0109,0,0,0,0,0,0.0427,0.0464,0.0533,0.0619,0.0704,0.076,0.085,0.0879,0.0919,0.0922,0.091,0.0802,0.0579,0.0482,0.0324,0.0267,0.0057,0.0073,-0.0021,-0.0145,-0.0141,-0.0102,0,0,0,0,0,0,0.0442,0.0502,0.0531,0.0643,0.0707,0.081,0.0873,0.0901,0.0902,0.0912,0.0799,0.0747,0.0531,0.067,0.0317,0.0269,0.0183,-0.0029,-0.0033,-0.0147,-0.0144,-0.0141,-0.01,0,0,0,0,0]}]]